GEFSSE_con_prob3kmehi_096.txt.gz
EHI
64 68 75 69 48 25 10 2 2 2 1 0 0 0 0 0 0 0 0 0 0 0 0 0 0 0 0 0 0 0 0 0 0 0 0 0 0 0 0 0 0 0 0
72 71 76 71 51 29 12 5 3 2 1 0 0 0 0 0 0 0 0 0 0 0 0 0 0 0 0 0 0 0 0 0 0 0 0 0 0 0 0 0 0 0 0
75 69 70 70 56 36 19 10 5 3 1 0 0 0 0 0 0 0 0 0 0 0 0 0 0 0 0 0 0 0 0 0 0 0 0 0 0 0 0 0 0 0 0
67 60 61 67 59 42 26 14 6 3 2 1 0 0 0 0 0 0 0 0 0 0 0 0 0 0 0 0 0 0 0 0 0 0 0 0 0 0 0 0 0 0 0
59 53 59 66 59 46 32 18 8 4 3 2 1 1 1 1 1 1 0 0 0 0 0 0 0 0 0 0 0 0 0 0 0 0 1 1 1 0 0 0 0 0 0
58 55 59 65 60 49 36 21 11 5 3 1 1 1 1 2 2 2 1 0 1 0 0 0 0 0 0 0 0 0 0 0 0 0 2 4 4 2 1 1 0 0 0
68 64 63 67 65 54 38 24 14 8 3 1 1 0 1 3 4 3 2 2 2 1 0 0 0 0 0 0 0 0 0 0 0 0 5 12 12 6 3 2 1 0 0
80 75 70 69 66 56 41 25 17 11 5 2 1 1 2 5 6 5 5 5 5 4 3 1 1 0 0 0 0 1 1 0 0 0 9 23 25 17 9 4 2 1 0
88 81 69 62 57 48 36 26 19 13 7 4 3 3 4 5 5 5 6 7 8 9 8 6 4 2 0 0 1 2 2 1 0 0 10 30 41 33 20 9 4 2 1
86 76 59 48 42 31 24 23 21 16 11 8 7 5 4 3 2 3 7 11 13 14 14 13 10 6 2 1 3 4 3 1 0 0 11 37 56 51 34 18 8 4 3
73 66 52 43 33 18 17 23 21 15 14 14 15 13 8 3 1 4 13 24 26 24 22 21 19 15 8 3 4 6 3 1 0 0 15 48 70 64 46 29 16 7 4
53 56 56 53 38 18 22 34 24 15 20 22 24 27 20 10 8 14 31 49 50 41 32 28 27 22 12 4 8 11 7 1 0 1 21 59 81 74 57 40 24 13 8
42 49 58 63 54 36 40 51 36 26 35 36 36 42 37 26 23 32 53 71 70 55 40 34 32 25 13 7 13 19 10 2 1 4 26 63 85 81 66 48 31 18 11
51 53 60 70 72 62 62 66 54 43 50 54 56 58 54 48 45 51 67 77 72 58 44 37 35 27 15 11 17 20 13 5 3 8 29 59 80 81 68 49 32 19 12
68 67 69 78 83 81 76 74 66 60 61 67 72 72 70 69 66 66 71 71 64 57 51 44 39 33 25 19 17 18 16 11 8 13 27 48 64 67 58 41 26 16 10
78 78 79 83 87 86 82 76 71 68 68 70 74 76 77 78 76 73 70 65 60 59 59 54 47 43 37 27 20 20 21 16 14 19 26 37 45 46 42 31 21 14 11
81 82 83 83 84 84 82 76 68 65 67 68 69 70 71 72 75 74 69 63 61 60 61 57 51 48 43 32 24 22 22 19 19 22 25 30 32 30 27 24 22 19 15
83 84 84 81 80 78 76 71 65 61 62 62 62 60 58 59 63 66 63 57 55 56 54 48 45 42 37 28 22 19 19 21 22 22 22 26 26 22 17 18 23 22 19
78 78 78 76 74 71 67 64 62 61 59 55 53 50 45 43 44 46 46 42 43 47 44 38 35 34 28 20 14 12 15 21 22 17 16 20 21 17 11 12 16 17 15
66 65 67 68 67 63 60 60 59 55 53 48 45 41 35 30 26 25 25 26 30 34 34 31 31 31 26 16 8 7 12 17 15 12 10 12 11 9 8 10 12 10 7
49 50 52 55 56 56 56 55 51 45 40 37 35 32 27 21 16 13 12 15 19 21 22 23 26 27 22 15 7 5 8 8 7 7 8 7 4 3 6 11 13 9 4
31 33 36 40 43 46 45 41 35 29 25 24 24 22 18 14 10 8 8 8 10 12 12 14 18 17 13 9 5 3 2 2 2 4 6 6 3 2 4 8 12 11 7
16 19 24 29 33 33 29 25 19 15 13 14 15 15 12 8 7 6 6 5 4 6 7 9 11 10 7 5 3 1 1 2 2 2 2 3 3 2 2 4 9 11 11
8 12 18 25 29 28 23 18 15 12 9 9 11 10 8 7 5 4 3 2 2 3 4 6 8 9 8 4 2 2 2 3 2 1 0 0 2 2 2 2 5 8 9
5 8 14 22 27 26 22 19 16 13 8 7 6 6 6 6 3 2 1 2 2 4 4 5 8 10 8 5 3 3 2 2 1 1 0 0 1 1 1 2 4 6 7
4 5 10 16 22 23 20 18 16 12 8 6 5 5 5 4 2 1 2 3 5 6 5 5 7 8 7 5 5 4 2 1 1 0 0 0 0 1 2 3 4 5 8

GEFSSE_con_prob3kmehi_102.txt.gz
EHI
27 54 85 93 90 85 73 54 34 18 10 6 4 3 3 4 4 4 3 2 1 0 0 0 0 0 0 0 0 0 0 1 2 3 2 1 1 1 1 0 0 0 0
42 62 85 93 91 85 74 56 37 19 9 5 3 3 2 2 2 1 1 1 0 0 0 0 0 0 0 0 0 0 0 1 2 3 2 1 0 0 0 0 0 0 0
63 70 84 93 94 87 75 60 41 22 9 4 3 2 1 0 0 0 0 0 0 0 0 0 0 0 0 0 0 0 0 0 1 2 1 0 0 0 0 0 0 0 0
75 73 79 92 97 90 78 67 50 29 13 6 3 1 0 0 0 0 0 0 0 0 0 0 0 0 0 0 0 0 0 0 0 0 0 0 0 0 0 0 0 0 0
74 70 77 93 99 93 84 75 62 40 20 10 5 2 1 0 0 0 0 0 0 0 0 0 0 0 0 0 0 0 0 0 0 0 0 0 0 0 0 0 0 0 0
67 68 78 93 99 96 89 81 70 52 32 17 8 4 2 1 0 0 0 0 0 0 0 0 0 0 0 0 0 0 0 0 0 0 0 0 0 1 2 1 0 0 0
64 66 77 92 98 97 92 86 77 64 46 29 16 8 5 4 2 1 0 1 1 0 0 0 0 0 0 0 0 0 0 0 0 0 0 0 1 4 7 5 2 1 0
63 64 74 87 94 95 94 90 85 75 63 47 30 16 9 7 6 5 4 4 3 2 1 0 0 0 0 0 0 0 0 0 0 0 0 0 1 5 10 10 7 4 2
53 59 67 75 83 87 89 88 84 77 69 59 44 28 18 14 13 12 10 9 7 5 3 1 1 1 1 1 0 0 0 0 0 0 0 0 2 6 10 13 12 7 4
38 44 52 60 65 70 75 77 72 65 59 55 49 37 26 17 13 13 12 10 9 7 5 4 3 3 3 2 1 0 0 0 0 0 0 0 3 8 11 13 12 10 7
29 28 34 42 47 51 55 57 53 46 42 42 40 36 27 14 7 6 6 7 9 8 6 6 7 7 6 3 1 0 0 0 0 0 1 2 6 14 18 16 13 12 9
30 25 24 32 36 37 38 39 36 31 29 28 26 25 21 11 3 2 4 8 10 9 7 6 9 11 10 6 2 0 0 0 0 0 1 5 11 20 28 27 22 17 13
38 31 28 30 31 28 28 31 29 24 20 17 14 13 12 9 5 3 6 11 15 15 13 13 16 17 15 9 3 0 0 0 0 0 1 7 18 29 36 40 35 26 20
45 40 35 34 32 28 28 30 27 22 19 15 10 7 8 9 6 5 7 13 21 27 27 25 26 24 18 10 3 0 0 0 0 0 1 8 23 37 43 44 39 29 22
50 46 42 40 39 37 36 35 32 27 25 22 13 8 11 11 9 7 7 11 20 31 34 31 27 23 17 10 3 0 0 0 0 0 0 8 24 39 44 38 30 21 15
54 52 48 47 47 47 46 44 40 36 33 29 19 14 14 14 12 9 7 7 12 20 26 26 22 18 14 8 3 0 0 0 0 1 0 6 20 32 36 32 22 14 10
55 54 52 50 49 48 47 45 41 38 34 29 21 16 15 14 12 8 5 4 6 8 13 16 16 15 12 7 3 1 0 0 0 0 1 5 13 20 24 25 23 17 12
49 49 49 47 43 41 40 36 32 31 28 22 17 15 14 13 9 5 2 2 4 4 6 10 11 11 10 6 3 1 1 0 0 0 1 4 7 8 10 16 20 18 15
33 34 35 33 31 30 29 24 20 20 18 14 11 11 12 10 6 2 1 2 4 4 5 7 7 7 6 5 3 2 1 0 0 1 2 4 3 2 3 6 10 11 11
15 16 17 17 17 18 17 13 10 9 8 6 6 7 8 6 4 3 2 2 4 5 5 6 6 5 5 5 3 1 1 0 0 1 2 2 1 1 1 2 2 3 4
5 4 6 9 10 10 9 7 5 4 3 3 3 4 4 3 3 3 3 3 4 4 4 5 5 5 5 4 2 0 0 0 0 0 1 1 0 0 1 1 1 1 1
2 1 3 6 7 7 6 4 3 3 3 3 3 3 3 2 2 2 3 3 3 3 3 4 4 4 4 3 1 0 0 0 0 0 0 0 0 0 0 1 1 1 0
1 1 3 5 5 4 4 3 3 3 3 3 3 3 3 2 2 2 2 3 3 3 3 3 3 3 3 2 1 0 0 0 0 0 0 0 0 0 0 0 0 0 0
1 2 3 3 3 2 2 1 1 2 2 2 2 2 2 1 1 1 1 2 3 3 2 2 2 2 2 1 0 0 0 0 0 0 0 0 0 0 0 0 0 0 0
1 2 2 1 1 1 0 0 0 0 0 1 1 1 1 0 0 0 0 1 2 1 1 1 1 1 1 0 0 0 0 0 0 0 0 0 0 0 0 0 0 0 0
0 1 2 1 0 0 0 0 0 0 0 0 0 0 0 0 0 0 0 0 1 0 0 0 0 0 0 0 0 0 0 0 0 0 0 0 0 0 0 0 0 0 0

GEFSSE_con_prob3kmehi_108.txt.gz
EHI
21 29 45 63 77 87 92 96 96 94 91 87 80 68 54 39 25 16 8 2 0 0 0 0 0 0 0 0 0 0 0 0 0 0 0 0 0 0 0 0 0 0 0
36 39 51 65 75 83 88 91 91 89 87 84 76 66 53 41 29 17 7 2 0 0 0 0 0 0 0 0 0 0 0 0 0 0 0 0 0 0 0 0 0 0 0
58 52 55 66 75 80 83 85 86 84 80 76 70 61 50 41 31 18 7 2 0 0 0 0 0 0 0 0 0 0 0 0 0 0 0 0 0 0 0 0 0 0 0
68 59 58 71 80 81 81 81 82 79 73 67 62 56 46 36 26 14 7 3 1 0 0 0 0 0 0 0 0 0 0 0 0 0 0 0 0 0 0 0 0 0 0
66 60 62 76 85 84 81 79 76 71 64 56 51 45 36 26 17 9 6 4 1 0 0 0 0 0 0 0 0 0 0 0 0 0 0 0 0 0 0 0 0 0 0
68 61 64 77 85 84 81 77 71 62 53 45 38 31 22 14 8 5 3 2 1 0 0 0 0 0 0 0 0 0 0 0 0 0 0 0 0 0 0 0 0 0 0
73 66 66 76 82 81 77 75 68 56 45 38 30 22 13 7 4 2 1 1 0 0 0 0 0 0 0 0 0 0 0 0 0 0 0 0 0 0 0 0 0 0 0
74 68 67 72 76 75 72 70 64 52 42 33 24 17 9 4 2 1 0 0 0 0 0 0 0 0 0 0 0 0 0 0 0 0 0 0 0 0 0 0 0 0 0
66 67 67 67 69 69 67 64 58 47 36 27 20 14 8 3 1 0 0 0 0 0 0 0 0 0 0 0 0 0 0 0 0 0 0 0 0 0 0 0 0 0 0
51 55 60 64 66 67 64 60 54 43 32 23 17 13 8 3 1 0 0 0 0 0 0 0 0 0 0 0 0 0 0 0 0 0 0 0 0 0 0 0 0 0 0
35 37 44 52 61 64 62 56 49 41 32 24 19 14 10 6 2 1 1 1 2 1 1 0 0 0 0 0 0 0 0 0 0 0 0 0 0 0 0 0 0 0 0
29 27 29 35 43 50 52 48 44 39 33 29 26 22 17 12 8 6 4 3 3 3 2 1 2 3 3 3 2 1 1 0 0 0 0 0 0 0 0 1 1 0 0
31 26 23 24 27 33 36 37 38 37 33 31 30 28 25 20 16 13 9 5 4 3 3 4 6 8 8 6 4 2 1 1 0 0 0 0 0 0 0 1 2 1 1
30 25 20 19 20 22 25 27 29 29 28 27 25 24 24 21 17 14 11 6 5 5 5 6 8 9 10 9 6 3 1 1 0 0 0 0 0 0 1 2 2 1 1
23 21 18 18 19 20 20 21 21 20 20 20 18 17 17 15 13 11 9 5 4 6 7 6 5 7 9 10 9 5 2 1 1 0 0 0 0 1 3 3 2 1 1
17 19 19 18 18 19 18 17 15 12 12 14 14 12 12 10 9 10 9 6 3 3 5 5 4 5 7 9 9 9 5 1 1 0 0 1 1 3 5 5 2 1 1
15 18 21 18 14 15 16 14 11 8 7 9 9 9 8 6 6 7 8 6 2 1 2 3 4 5 5 5 6 8 6 3 1 0 1 2 2 4 7 6 3 2 3
10 11 13 12 9 8 9 10 9 7 5 6 5 5 5 4 4 4 4 3 1 0 1 3 5 5 3 2 2 4 4 3 1 0 1 2 2 3 6 6 5 5 5
3 3 3 4 3 2 3 4 5 5 5 5 4 3 4 4 5 4 3 1 1 1 2 4 5 4 3 2 1 1 2 2 1 0 0 1 1 2 3 5 6 6 6
0 0 0 0 0 0 0 0 1 2 3 3 3 3 3 4 4 4 3 3 2 2 3 4 4 4 2 1 0 0 0 1 1 0 0 0 1 1 2 3 6 6 6
0 0 0 0 0 0 0 0 1 2 2 2 2 3 3 3 3 3 3 3 3 3 3 3 3 3 3 1 1 0 0 0 0 0 0 1 1 1 1 1 3 6 7
0 0 0 0 0 0 0 0 1 1 2 1 1 1 2 3 3 2 3 3 2 2 2 3 3 3 3 3 2 1 0 0 0 0 0 0 0 1 1 1 2 5 6
0 0 0 0 0 0 0 0 0 0 0 1 1 1 1 2 2 3 3 2 1 1 1 1 2 2 3 3 3 2 0 0 0 0 0 0 0 0 1 1 1 2 2
0 0 0 0 0 0 0 0 0 0 0 0 0 0 0 1 1 2 2 2 1 0 0 0 1 1 1 2 2 1 0 0 0 0 0 0 0 0 0 0 0 0 0
0 0 0 0 0 0 0 0 0 0 0 0 0 0 0 0 0 1 1 1 1 0 0 0 0 0 0 1 1 0 0 0 0 0 0 0 0 0 0 0 0 0 0
0 0 0 0 0 0 0 0 0 0 0 0 0 0 0 0 0 0 0 0 0 0 0 0 0 0 0 0 0 0 0 0 0 0 0 0 0 0 0 0 0 0 0

GEFSSE_con_prob3kmehi_114.txt.gz
EHI
45 54 53 34 18 18 28 44 58 63 58 49 41 32 25 17 11 6 2 1 0 0 0 0 0 0 0 0 0 0 0 0 0 0 0 0 0 0 0 0 0 0 0
51 57 52 33 20 20 31 46 61 66 61 52 43 34 26 18 10 4 1 0 0 0 0 0 0 0 0 0 0 0 0 0 0 0 0 0 0 0 0 0 0 0 0
50 50 42 30 21 21 33 50 63 67 62 54 46 37 29 20 10 3 1 0 0 0 0 0 0 0 0 0 0 0 0 0 0 0 0 0 0 0 0 0 0 0 0
36 35 33 29 21 19 32 50 62 64 59 52 45 37 29 20 9 2 0 0 0 0 0 0 0 0 0 0 0 0 0 0 0 0 0 0 0 0 0 0 0 0 0
18 24 31 29 21 18 27 43 54 54 50 44 37 31 24 16 7 2 0 0 0 0 0 0 0 0 0 0 0 0 0 0 1 1 0 0 0 0 0 0 0 0 0
10 18 29 29 21 18 24 33 40 39 35 31 25 20 15 9 4 1 0 0 0 0 0 0 0 0 0 0 0 0 0 1 1 0 0 0 0 0 0 0 0 0 0
9 15 26 28 21 18 20 25 28 26 22 19 15 11 6 3 1 0 0 0 0 0 0 0 0 0 0 0 0 0 0 0 0 0 0 0 0 0 0 0 0 0 0
10 15 23 24 20 18 18 21 22 19 14 11 9 6 3 1 0 0 0 0 0 0 0 0 0 0 0 0 0 0 0 0 0 0 0 0 0 0 0 0 0 0 0
12 15 18 18 16 14 15 16 16 13 9 7 6 5 4 2 0 0 0 0 0 0 0 0 0 0 0 0 0 0 0 0 0 0 0 0 0 0 0 0 0 0 0
14 14 15 13 10 8 9 10 10 9 7 6 5 4 4 3 1 0 0 0 0 0 0 0 0 0 0 0 0 0 0 0 0 0 0 1 1 1 0 0 0 0 0
16 15 12 10 8 6 6 7 7 6 6 6 5 4 4 3 2 2 1 1 0 0 0 0 0 0 0 0 0 0 0 0 0 0 1 2 2 1 0 0 0 0 0
22 18 13 10 9 9 10 10 7 6 7 6 6 6 5 4 4 4 3 2 1 0 0 0 0 0 0 0 0 0 0 0 0 0 3 5 3 0 0 0 0 0 0
27 23 18 16 16 18 18 14 11 11 12 9 8 8 9 9 8 7 7 6 3 3 4 4 4 3 2 2 1 0 0 0 1 1 4 7 4 0 0 0 0 0 0
31 30 27 25 25 28 27 20 16 17 17 16 15 14 14 15 14 14 16 14 11 11 12 14 13 9 7 6 4 1 0 0 1 1 3 5 3 0 0 0 0 0 0
34 34 33 32 33 33 32 27 22 21 21 22 23 19 14 15 17 18 21 21 19 19 21 23 21 16 14 12 7 2 0 1 2 1 2 4 2 0 0 0 0 0 0
33 32 30 31 31 31 29 27 25 24 23 22 21 17 12 11 14 16 19 21 20 21 25 25 21 19 19 15 10 5 2 3 3 2 2 3 2 1 1 0 0 0 1
31 28 23 21 22 24 23 20 19 22 21 19 18 16 11 10 12 14 18 19 18 17 21 23 20 20 20 17 12 8 6 5 5 5 4 3 2 1 2 1 2 2 3
28 25 19 14 14 17 17 13 11 15 17 16 17 16 12 10 12 14 17 17 16 14 15 18 20 20 20 19 15 12 10 8 7 7 6 4 3 3 4 5 6 7 6
19 18 15 12 10 10 10 9 9 10 12 12 13 12 10 8 9 11 12 12 11 11 11 12 14 17 20 19 16 12 10 9 8 7 5 5 6 6 5 8 10 9 7
8 8 7 6 5 5 5 6 7 6 7 8 7 7 6 5 6 7 6 5 5 6 7 6 7 9 13 15 11 8 7 6 7 7 5 6 7 7 6 9 12 11 9
1 2 2 2 2 3 3 4 4 4 4 4 3 3 2 1 2 3 3 2 2 2 3 3 3 4 7 9 8 5 3 3 5 6 6 6 6 5 5 10 14 15 15
1 1 2 2 3 3 3 3 3 3 3 2 1 0 0 0 0 1 1 1 1 0 1 1 2 2 3 6 7 6 3 1 2 3 5 4 5 7 8 10 14 17 18
3 2 2 3 3 3 2 1 2 3 2 1 0 0 0 0 0 0 0 0 0 0 0 0 1 1 3 4 5 5 3 1 1 1 2 2 5 10 11 10 12 16 18
3 3 3 4 4 3 2 1 2 2 1 1 0 0 0 0 0 0 0 0 0 0 1 1 1 1 2 3 4 4 3 3 2 1 1 1 3 7 9 8 12 17 19
1 1 2 3 3 3 2 2 2 2 1 1 1 1 0 0 0 0 0 0 0 0 1 1 1 1 1 1 2 3 3 3 3 2 1 1 1 2 4 7 12 15 16
0 0 1 1 1 2 1 1 1 1 1 1 2 1 0 0 0 0 0 0 0 0 0 1 1 0 0 0 1 2 3 3 2 2 1 2 2 1 3 8 11 12 11